This demonstration page uses our WeatherBlox Daily Observations layout. Learn more.

Hourly Observations for April 17, 2018

Temp ( °F °C ) Dew Point ( °F °C ) Humidity (%) Winds ( mph kmh ) Pressure ( in mb ) Visibility ( mi km ) Precip ( " mm )
12:15 am 00:15 Clear 35 1.5 30 -1.1 83 83 E 14 22 30 1016 10 16.0934 0 0
12:35 am 00:35 Clear 35 1.4 31 -0.8 85 85 E 14 22 30 1016 10 16.0934 0 0
12:55 am 00:55 Clear 34 1.2 31 -0.5 89 89 E 14 22 30 1016 10 16.0934 0 0
1:15 am 01:15 Clear 34 1 31 -0.6 89 89 ESE 15 24 29.97 1015 10 16.0934 0 0
1:35 am 01:35 Clear 34 1 31 -0.6 89 89 ESE 13 20 29.97 1015 10 16.0934 0 0
1:55 am 01:55 Clear 34 1 31 -0.8 88 88 ESE 15 24 29.97 1015 10 16.0934 0 0
2:15 am 02:15 Clear 34 1.1 30 -1.1 85 85 ESE 15 24 29.97 1015 10 16.0934 0 0
2:35 am 02:35 Clear 34 1 30 -1.2 85 85 ESE 13 20 29.97 1015 10 16.0934 0 0
2:55 am 02:55 Clear 33 0.7 30 -1.1 88 88 E 12 19 29.94 1014 10 16.0934 0 0
3:15 am 03:15 Clear 33 0.4 30 -1.2 89 89 E 10 17 29.94 1014 10 16.0934 0 0
3:35 am 03:35 Clear 32 0.1 29 -1.4 90 90 E 12 19 29.94 1014 10 16.0934 0 0
3:55 am 03:55 Clear 33 0.3 30 -1.2 90 90 E 12 19 29.94 1014 10 16.0934 0 0
4:15 am 04:15 Clear 33 0.3 30 -1.3 89 89 E 13 20 29.91 1013 10 16.0934 0 0
4:35 am 04:35 Clear 32 0.2 30 -1.2 90 90 E 10 17 29.94 1014 10 16.0934 0 0
4:55 am 04:55 Clear 32 0.2 30 -1.3 90 90 E 9 15 29.91 1013 10 16.0934 0 0
5:15 am 05:15 Clear 32 0 30 -1.1 92 92 E 12 19 29.91 1013 10 16.0934 0 0
5:35 am 05:35 Clear 32 0 30 -1.1 92 92 E 13 20 29.91 1013 10 16.0934 0 0
5:55 am 05:55 Clear 32 0 30 -1.2 92 92 E 13 20 29.91 1013 10 16.0934 0 0
6:15 am 06:15 Clear 32 0 30 -1.2 92 92 E 13 20 29.91 1013 10 16.0934 0 0
6:35 am 06:35 Clear 32 0 30 -1.3 91 91 E 12 19 29.88 1012 10 16.0934 0 0
6:55 am 06:55 Clear 32 0 30 -1.3 91 91 E 14 22 29.88 1012 10 16.0934 0 0
7:15 am 07:15 Sunny 32 0 30 -1.3 91 91 E 14 22 29.88 1012 10 16.0934 0 0
7:35 am 07:35 Sunny 32 0 30 -1.3 91 91 E 14 22 29.88 1012 10 16.0934 0 0
7:55 am 07:55 Sunny 32 0.1 30 -1.1 92 92 E 14 22 29.91 1013 10 16.0934 0 0
8:15 am 08:15 Sunny 33 0.6 30 -1 89 89 E 14 22 29.91 1013 10 16.0934 0 0
8:35 am 08:35 Sunny 34 1 30 -0.9 87 87 E 13 20 29.88 1012 10 16.0934 0 0
8:55 am 08:55 Sunny 34 1.1 31 -0.7 88 88 E 16 26 29.88 1012 10 16.0934 0 0
9:15 am 09:15 Sunny 35 1.6 31 -0.5 86 86 E 23 37 29.85 1011 10 16.0934 0 0
9:35 am 09:35 Sunny 36 2.1 31 -0.5 83 83 E 17 28 29.85 1011 10 16.0934 0 0
9:55 am 09:55 Sunny 38 3.4 32 0 79 79 E 20 31 29.85 1011 10 16.0934 0 0
10:15 am 10:15 Sunny 39 3.9 32 0 76 76 E 23 37 29.83 1010 10 16.0934 0 0
10:35 am 10:35 Sunny 40 4.6 32 0 72 72 E 20 31 29.83 1010 10 16.0934 0 0
10:55 am 10:55 Sunny 43 5.9 32 0.2 67 67 E 18 30 29.83 1010 10 16.0934 0 0
11:15 am 11:15 Sunny 45 7 33 0.4 63 63 E 21 33 29.83 1010 10 16.0934 0 0
11:35 am 11:35 Sunny 46 7.5 33 0.5 62 62 ESE 21 33 29.8 1009 10 16.0934 0 0
11:55 am 11:55 Sunny 47 8.5 33 0.8 59 59 ESE 18 30 29.77 1008 10 16.0934 0 0
12:15 pm 12:15 Sunny 48 9 33 0.6 56 56 SE 20 31 29.77 1008 10 16.0934 0 0
12:35 pm 12:35 Sunny 49 9.4 34 0.9 56 56 ESE 21 33 29.74 1007 10 16.0934 0 0
12:55 pm 12:55 Sunny 50 9.9 34 1 54 54 ESE 18 30 29.68 1005 10 16.0934 0 0
1:15 pm 13:15 Sunny 51 10.6 34 1.3 53 53 ESE 22 35 29.68 1005 10 16.0934 0 0
1:35 pm 13:35 Sunny 52 11.3 35 1.8 52 52 ESE 22 35 29.68 1005 10 16.0934 0 0
1:55 pm 13:55 Sunny 54 12 36 2 51 51 ESE 21 33 29.65 1004 10 16.0934 0 0
2:15 pm 14:15 Sunny 55 13 36 2.3 48 48 SE 22 35 29.62 1003 10 16.0934 0 0
2:35 pm 14:35 Sunny 56 13.3 36 2.1 47 47 ESE 24 39 29.59 1002 10 16.0934 0 0
2:55 pm 14:55 Sunny 57 13.7 36 2.2 46 46 ESE 26 43 29.59 1002 10 16.0934 0 0
3:15 pm 15:15 Sunny 58 14.4 37 2.5 45 45 SE 21 33 29.56 1001 10 16.0934 0 0
3:35 pm 15:35 Sunny 58 14.7 36 2.4 44 44 ESE 20 31 29.56 1001 10 16.0934 0 0
3:55 pm 15:55 Sunny 59 15.2 36 2.4 42 42 SE 23 37 29.56 1001 10 16.0934 0 0
4:15 pm 16:15 Sunny 60 15.6 36 2.3 41 41 ESE 21 33 29.53 1000 10 16.0934 0 0
4:35 pm 16:35 Sunny 61 16.2 37 2.6 40 40 SE 18 30 29.5 999 10 16.0934 0 0
4:55 pm 16:55 Sunny 61 16.2 37 2.6 40 40 ESE 22 35 29.5 999 10 16.0934 0 0
5:15 pm 17:15 Sunny 61 16.3 37 2.8 41 41 ESE 22 35 29.47 998 10 16.0934 0 0
5:35 pm 17:35 Sunny 62 16.6 37 3 40 40 ESE 24 39 29.47 998 10 16.0934 0 0
5:55 pm 17:55 Sunny 62 16.6 37 3 40 40 ESE 26 43 29.44 997 10 16.0934 0 0
6:15 pm 18:15 Sunny 61 16.3 38 3.1 41 41 ESE 26 43 29.41 996 10 16.0934 0 0
6:35 pm 18:35 Sunny 61 16 38 3.3 43 43 ESE 25 41 29.41 996 10 16.0934 0 0
6:55 pm 18:55 Sunny 60 15.7 38 3.5 44 44 ESE 28 44 29.41 996 10 16.0934 0 0
7:15 pm 19:15 Sunny 59 15.1 38 3.4 46 46 E 25 41 29.41 996 10 16.0934 0 0
7:35 pm 19:35 Sunny 57 14 38 3.5 49 49 E 20 31 29.44 997 10 16.0934 0 0
7:55 pm 19:55 Sunny 56 13.6 38 3.6 51 51 E 14 22 29.47 998 10 16.0934 0 0
8:15 pm 20:15 Sunny 56 13.5 39 3.7 52 52 N 15 24 29.56 1001 10 16.0934 0 0
8:35 pm 20:35 Clear 55 12.8 38 3.4 53 53 N 23 37 29.62 1003 10 16.0934 0 0
8:55 pm 20:55 Clear 52 11 37 2.5 56 56 N 21 33 29.65 1004 10 16.0934 0 0
9:15 pm 21:15 Clear 51 10.6 36 2.3 57 57 N 22 35 29.68 1005 10 16.0934 0 0
9:35 pm 21:35 Clear 50 10.1 36 2.3 59 59 N 21 33 29.68 1005 10 16.0934 0 0
9:55 pm 21:55 Partly Cloudy 50 10 36 2.4 60 60 NNE 20 31 29.68 1005 10 16.0934 0 0
10:15 pm 22:15 Mostly Cloudy 50 10.1 36 2.2 58 58 ENE 21 33 29.65 1004 10 16.0934 0 0
10:35 pm 22:35 Cloudy 50 10 36 2.2 59 59 NNE 13 20 29.68 1005 10 16.0934 0 0
10:55 pm 22:55 Cloudy 47 8.6 39 3.7 72 72 N 10 17 29.74 1007 10 16.0934 0 0
11:15 pm 23:15 Cloudy with Rain 46 7.8 40 4.3 79 79 NNW 9 15 29.74 1007 10 16.0934 0 0
11:35 pm 23:35 Cloudy with Drizzle 46 7.5 41 4.8 83 83 NW 6 9 29.77 1008 10 16.0934 0 0
11:55 pm 23:55 Cloudy with Rain 45 7.2 42 5.4 88 88 W 10 17 29.8 1009 7 11.26538 0.02 0.508

Powered by AerisWeather